Location: La Comballaz
(46.3780°N, 7.0817°E)
Time: 15:45:12
(UTC+00:00)

ISS - Visible Passes

Search period start: 25 February 2024 00:00
Search period end: 06 March 2024 00:00
Orbit: 415 x 422 km, 51.6° (Epoch: 25 February)

Date Brightness Start Highest point End Pass type
(mag) Time Alt. Az. Time Alt. Az. Time Alt. Az.
25 Feb -0.8 03:33:08 17° ENE 03:33:08 17° ENE 03:34:03 10° ENE visible
25 Feb -2.6 05:06:04 20° WNW 05:07:48 33° N 05:10:55 10° ENE visible
26 Feb -2.7 04:20:08 36° N 04:20:08 36° N 04:23:05 10° ENE visible
27 Feb -1.0 03:34:08 18° NE 03:34:08 18° NE 03:35:14 10° ENE visible
27 Feb -2.5 05:07:04 16° NW 05:09:14 33° N 05:12:22 10° ENE visible
28 Feb -2.5 04:21:00 31° N 04:21:13 32° N 04:24:19 10° ENE visible
29 Feb -1.1 03:34:54 20° NE 03:34:54 20° NE 03:36:17 10° ENE visible
29 Feb -2.8 05:07:50 14° NW 05:10:26 41° NNE 05:13:40 10° E visible
01 Mar -2.6 04:21:42 32° NNW 04:22:20 35° N 04:25:30 10° ENE visible
02 Mar -1.4 03:35:33 23° NE 03:35:33 23° NE 03:37:16 10° ENE visible
02 Mar -3.6 05:08:28 14° WNW 05:11:18 70° NNE 05:14:40 10° ESE visible
03 Mar -3.1 04:22:19 39° NNW 04:23:09 51° NNE 04:26:28 10° E visible
04 Mar -1.7 03:36:10 28° ENE 03:36:10 28° ENE 03:38:08 10° E visible
04 Mar -3.5 05:09:06 14° WNW 05:11:46 54° SSW 05:15:05 10° SE visible
05 Mar -3.9 04:22:59 56° WNW 04:23:37 84° SSW 04:26:59 10° ESE visible
